Weather History for KCUT - August, 2013

Change the Weather History Date:

Tuesday, August 27, 2013

  Actual Average Record
Temperature  
Mean Temperature 72 °F 62 °F  
Max Temperature 86 °F 76 °F 93 °F (2010)
Min Temperature 58 °F 48 °F 34 °F (1965)
Degree Days  
Heating Degree Days 0 4  
Month to date heating degree days 55 73  
Since 1 June heating degree days 290 354  
Since 1 July heating degree days 97 134  
Cooling Degree Days 7 1  
Month to date cooling degree days 51 48  
Year to date cooling degree days 125 155  
Since 1 June cooling degree days 123 154  
Growing Degree Days 22 (Base 50)    
Moisture  
Dew Point 49 °F    
Average Humidity 50    
Maximum Humidity 72    
Minimum Humidity 27    
Precipitation  
Precipitation T in 0.07 in 3.50 in (1933)
Month to date precipitation 3.95 1.84  
Year to date precipitation 15.95 14.61  
Sea Level Pressure  
Sea Level Pressure 29.93 in    
Wind  
Wind Speed 5 mph (WNW)    
Max Wind Speed 17 mph    
Max Gust Speed 22 mph    
Visibility 10 miles    
Events      
T = Trace of Precipitation, MM = Missing Value Source: NWS Daily Summary

Daily Weather History Graph

Daily Weather History Graph

Search for Another Location

Airport or City:

Trip Planner

Search our weather history database for the weather conditions in past years. The results will help you decide how hot, cold, wet, or windy it might be!

Date:

Astronomy

Aug. 27, 2013 Rise Set
Actual Time 6:12 AM MDT 7:38 PM MDT
Civil Twilight 5:42 AM MDT 8:08 PM MDT
Nautical Twilight 5:06 AM MDT 8:44 PM MDT
Astronomical Twilight 4:28 AM MDT 9:22 PM MDT
Moon 11:18 PM MDT (8/27) 1:27 PM MDT (8/27)
Length of Visible Light 14h 25m
Length of Day
13h 25m
Waning Gibbous, 56% of the Moon is Illuminated
Aug 27
Waning Gibbous
Aug 28
Last Quarter
Sep 5
New
Sep 12
First Quarter
Sep 19
Full

Hourly Weather History & Observations

Time (MDT) Temp. Dew Point Humidity Pressure Visibility Wind Dir Wind Speed Gust Speed Precip Events Conditions
12:53 AM 61.0 °F 48.9 °F 64% 29.94 in 10.0 mi NW 3.5 mph - N/A   Clear
1:53 AM 60.1 °F 48.9 °F 67% 29.93 in 10.0 mi WNW 3.5 mph - N/A   Clear
2:53 AM 61.0 °F 50.0 °F 67% 29.94 in 10.0 mi NW 3.5 mph - N/A   Clear
3:53 AM 59.0 °F 50.0 °F 72% 29.94 in 10.0 mi NW 3.5 mph - N/A   Clear
4:53 AM 63.0 °F 50.0 °F 63% 29.93 in 10.0 mi West 4.6 mph - N/A   Clear
5:53 AM 60.1 °F 50.0 °F 69% 29.96 in 10.0 mi Calm Calm - N/A   Clear
6:53 AM 62.1 °F 50.0 °F 65% 29.96 in 10.0 mi West 3.5 mph - N/A   Clear
7:53 AM 64.9 °F 54.0 °F 68% 29.96 in 10.0 mi Calm Calm - N/A   Clear
8:53 AM 73.9 °F 51.1 °F 45% 29.94 in 10.0 mi WSW 6.9 mph - N/A   Clear
9:53 AM 75.9 °F 51.1 °F 42% 29.96 in 10.0 mi Variable 6.9 mph - N/A   Clear
10:53 AM 79.0 °F 48.9 °F 35% 29.96 in 10.0 mi WSW 8.1 mph - N/A   Clear
11:53 AM 82.0 °F 48.0 °F 30% 29.94 in 10.0 mi Variable 5.8 mph 17.3 mph N/A   Clear
12:53 PM 84.0 °F 48.0 °F 28% 29.93 in 10.0 mi West 13.8 mph - N/A   Clear
1:53 PM 84.9 °F 48.0 °F 28% 29.92 in 10.0 mi West 13.8 mph 19.6 mph N/A   Clear
2:53 PM 84.9 °F 48.0 °F 28% 29.91 in 10.0 mi West 12.7 mph 19.6 mph N/A   Clear
3:53 PM 84.9 °F 48.0 °F 28% 29.91 in 10.0 mi Variable 6.9 mph 18.4 mph N/A   Clear
4:53 PM 84.9 °F 46.9 °F 27% 29.90 in 10.0 mi WSW 8.1 mph 17.3 mph N/A   Clear
5:53 PM 84.0 °F 46.9 °F 27% 29.90 in 10.0 mi Variable 6.9 mph - N/A   Clear
6:53 PM 82.0 °F 46.9 °F 29% 29.91 in 10.0 mi WNW 8.1 mph - N/A   Clear
7:53 PM 75.0 °F 46.9 °F 37% 29.94 in 10.0 mi Calm Calm - N/A   Clear
8:53 PM 75.0 °F 46.9 °F 37% 29.92 in 10.0 mi NW 4.6 mph - N/A   Partly Cloudy
9:53 PM 73.0 °F 48.9 °F 42% 29.93 in 10.0 mi Variable 3.5 mph - 0.00 in   Mostly Cloudy
10:53 PM 72.0 °F 48.9 °F 44% 29.91 in 10.0 mi Calm Calm - N/A   Partly Cloudy
11:53 PM 70.0 °F 51.1 °F 51% 29.91 in 10.0 mi NNW 3.5 mph - N/A   Clear